METAR LSZS 230750Z VRB02KT 9999 FEW080 13/02 Q1023 RMK E=
Diese Daten sind ohne Gewähr und dürfen nicht für die Flugvorbereitung verwendet werden.
Information contained in this website shall not be used for flight operation purposes.